星链-30760 (STARLINK-30760 )

导读

STARLINK-30760是美国SpaceX星链互联网卫星项目中的一颗卫星,于2023年10月30日发射升空,属于星链星座部署批次的卫星之一。星链旨在构建全球卫星互联网,为全球各地提供高速互联网接入服务,这颗卫星加入后进一步扩充了星链星座的在轨规模。

基本信息
目录编号:
58187
目录名称:
STARLINK-30760
国际标识:
2023-167N
轨道中心:
EARTH
卫星名称:
星链-30760
卫星全名:
星链-30760 (STARLINK-30760 )
卫星状态:
在轨 (已飞行1040 天)
发射日期:
2023-10-30 UTC
国别 :
美国 (US)
星等 :
--
轨道信息
数据来源 国际轨道数据
星历时间: 2026-09-04T14:06:20+0800
11小时前
查看轨道信息
半长轴: 6861.179km
偏心率: 0.0001573
轨道倾角: 43.003°
近地点辐角 271.169°
升交点赤经 215.010°
平近点角 88.898°
近地点: 481.962km
远地点: 484.122km
周期: 94.267分钟
每日圈数: 15.275826
详细信息
固有亮度:
5
最大亮度:
0.3
卫星平台:
Starlink v2.0 mini
覆盖范围:
全球
运营商:
太空探索技术公司
运营商所在国:
美国
制造商(研发单位):
太空探索技术公司
制造商所在国:
美国
使用方式:
暂无
卫星简介
星链(Starlink)计划是由太空探索技术公司(SpaceX)提出的一个巨型低轨卫星互联网星座项目,计划在2019年至2024年间在太空搭建由约1.2万颗卫星组成的“星链”网络,其中1584颗将部署在地球上空550千米处的近地轨道,并从2020年开始工作。该卫星仍在工作。
2D轨道图
3D轨道图
轨道高度分析图
轨道倾角分析图
轨道综合分析图
查看轨道综合分析图